Wind_Speed
15 15 16 16 17 17 18 18 18 19 19 20 21 21 21 21 21 19 20 21 22 21 21 21 20 19 19 18 17 17 17 17 16 16 15 14 13 11 11 9 9 9 8
16 15 17 17 18 19 20 20 19 20 21 22 22 22 22 22 22 22 23 24 24 24 23 23 23 22 21 21 20 19 18 17 17 18 17 17 15 15 13 13 12 10 10
16 16 18 18 19 20 20 21 21 22 23 24 23 24 24 24 23 22 23 24 24 25 26 26 24 24 23 23 23 21 20 19 18 19 19 19 18 18 17 16 15 14 11
19 19 20 20 21 22 23 24 26 27 27 27 27 26 26 26 26 26 27 26 25 25 25 25 26 25 25 25 26 26 24 23 22 22 22 22 22 21 21 19 18 17 16
23 23 22 22 25 27 28 29 29 31 31 30 30 29 29 30 30 30 29 27 28 29 29 28 27 27 27 27 27 28 29 28 27 26 26 25 25 25 24 24 22 21 19
25 26 27 27 29 30 30 32 33 33 33 34 34 34 33 33 33 34 33 31 30 29 29 28 29 29 29 29 30 31 32 32 30 29 29 29 29 29 28 27 26 25 24
28 29 29 29 30 31 32 33 34 36 38 38 41 41 40 39 37 36 35 34 33 32 31 31 31 31 32 33 34 34 34 35 36 33 33 33 32 33 33 31 30 29 28
32 32 32 32 34 35 35 36 38 42 42 41 42 42 43 38 37 36 34 34 32 32 32 33 33 33 33 34 35 35 35 37 38 39 37 37 37 37 37 36 35 34 32
34 35 35 35 36 38 38 38 39 40 41 40 38 38 41 42 40 39 38 37 35 33 33 33 36 36 38 40 39 38 37 35 36 39 45 45 42 41 41 40 39 38 38
35 36 36 37 36 36 37 36 37 38 38 37 35 33 36 38 40 43 41 37 35 34 35 33 35 36 40 44 44 44 42 40 43 46 43 38 47 46 43 44 42 42 42
37 37 37 36 35 35 34 33 34 35 35 35 35 35 36 36 36 39 43 43 41 37 39 39 37 37 39 37 38 42 40 47 51 49 50 35 37 36 46 46 46 47 47
35 34 34 34 34 34 35 35 35 35 35 36 36 35 36 35 38 40 42 43 42 39 36 36 34 33 32 33 33 36 38 42 44 40 40 47 39 41 39 41 45 52 56
34 34 35 36 37 37 38 38 38 37 36 34 34 34 35 36 37 37 37 38 40 39 37 32 31 28 30 30 32 33 32 34 35 38 33 34 39 40 38 29 31 35 37
35 36 36 36 37 37 37 37 37 36 35 34 32 34 34 35 34 34 34 35 39 40 38 34 29 26 27 29 30 33 32 32 33 26 29 29 35 41 36 31 29 30 32
34 34 34 34 34 33 32 32 32 32 32 31 31 31 31 31 30 30 31 35 37 39 39 33 31 26 27 30 32 32 29 30 30 23 22 28 29 30 32 31 26 25 24
32 31 30 29 28 28 28 27 26 27 27 27 27 27 28 29 29 31 33 32 32 34 35 31 28 25 28 28 27 26 25 25 26 18 15 20 25 28 29 26 26 26 24
29 28 27 27 26 26 26 25 25 24 24 24 25 26 28 29 27 30 31 30 31 30 27 25 24 25 26 26 25 22 25 22 26 10 11 12 15 20 22 24 28 29 28
27 26 26 26 25 25 25 25 24 24 23 23 25 26 27 26 27 28 27 26 26 23 23 23 25 27 28 28 23 22 21 20 16 19 14 15 18 18 20 26 27 27 28
24 25 25 25 24 24 23 22 21 20 21 22 23 23 21 24 25 20 21 21 19 20 22 24 24 24 21 19 19 21 21 24 18 19 21 22 22 23 25 25 27 30 30
23 23 23 22 22 22 19 18 17 18 19 19 20 19 20 19 17 18 16 13 15 17 17 16 18 19 20 19 18 18 18 20 21 19 21 21 25 27 27 29 29 30 32
20 19 19 19 18 16 16 15 14 15 14 12 11 10 9 9 10 12 13 13 14 19 19 17 19 22 23 24 24 23 23 23 24 25 25 26 27 28 31 32 33 35 36
16 15 16 15 12 9 8 8 6 4 4 6 9 10 11 13 15 16 18 18 19 21 22 22 23 25 25 26 27 27 27 28 29 28 28 30 30 31 32 33 33 34 35
15 14 11 8 5 4 2 2 5 6 8 10 12 14 16 17 18 19 21 22 23 24 25 25 26 27 28 28 27 28 28 28 28 28 27 27 30 30 29 29 28 28 28
11 9 7 6 5 4 4 6 7 9 12 14 15 17 19 20 22 23 24 25 25 26 27 28 28 28 28 28 29 28 27 25 23 23 21 20 25 24 24 24 23 22 21
7 8 8 7 6 6 7 9 11 13 14 17 18 20 21 22 23 23 26 26 27 27 27 27 28 29 29 28 27 27 25 22 21 20 20 19 20 20 20 21 21 21 21
8 8 8 7 7 9 10 12 14 15 17 18 19 21 22 23 24 24 25 25 26 27 28 29 29 29 29 27 25 23 22 22 22 21 20 20 21 21 21 21 21 21 23
Wind_Direction
267 270 273 276 278 281 282 284 286 287 288 290 291 291 290 287 286 286 291 289 293 296 297 299 300 304 308 311 315 316 311 304 297 292 286 282 277 271 271 266 265 268 267
267 269 271 273 276 278 281 282 283 284 285 286 288 287 286 285 285 286 284 284 287 290 291 291 293 297 298 301 304 306 304 301 295 289 285 282 277 275 273 271 268 262 266
271 270 270 271 272 272 275 278 280 282 284 284 285 284 282 282 284 284 283 284 286 288 289 292 292 291 291 291 291 292 294 292 287 281 276 273 271 268 267 268 268 268 262
273 271 269 265 264 266 270 275 278 280 282 284 285 286 286 286 284 283 282 284 285 285 285 287 291 292 290 289 288 286 285 284 281 276 269 264 262 262 262 260 260 258 260
271 269 266 263 264 267 272 275 278 281 280 281 283 285 287 287 287 285 284 283 282 283 282 284 285 287 285 283 281 279 277 275 275 273 270 265 261 257 257 257 256 256 255
270 269 269 267 267 269 273 277 279 279 282 285 285 286 286 285 283 283 283 282 282 282 282 282 282 282 283 281 278 276 276 273 271 272 270 267 264 260 256 255 255 254 254
272 272 271 270 269 269 273 277 280 283 285 286 287 288 285 284 284 285 283 282 282 281 280 281 281 279 278 278 277 276 274 273 271 268 268 266 261 259 257 254 252 252 252
274 274 273 272 272 273 275 278 281 285 285 286 287 290 290 286 283 283 282 280 281 280 278 276 276 275 275 274 276 277 278 276 271 268 264 264 261 257 255 253 252 251 250
274 275 276 275 276 277 278 279 281 281 284 285 286 286 289 290 292 287 285 286 284 282 280 278 271 276 271 273 272 274 276 273 272 270 267 259 257 254 252 251 249 250 249
273 273 274 276 277 278 278 279 279 280 281 283 282 284 284 287 291 293 295 296 296 293 288 282 277 277 275 275 274 274 275 274 273 263 264 262 260 252 250 251 251 249 250
273 274 275 277 278 278 277 277 277 277 280 282 282 281 283 286 287 290 292 296 295 294 292 289 285 282 281 282 283 280 280 277 274 285 275 251 252 265 253 248 248 248 252
272 274 276 276 275 275 277 278 278 279 278 277 277 278 279 281 285 287 290 291 292 292 290 294 294 289 286 288 285 284 278 281 283 281 274 282 243 243 275 266 269 259 257
273 274 275 277 278 278 278 278 278 277 275 274 275 276 279 281 284 287 289 292 297 301 301 299 297 296 290 286 285 282 284 289 286 273 279 292 261 257 271 270 270 272 269
274 275 276 277 277 278 278 279 279 278 278 277 277 279 281 283 285 288 293 297 301 302 303 303 300 298 290 286 283 286 287 294 291 278 273 271 274 266 263 256 265 264 270
274 275 277 278 279 280 281 281 282 282 283 283 283 285 286 288 290 292 296 297 299 300 302 307 305 301 297 292 290 286 290 289 284 275 250 257 258 254 260 258 253 252 261
275 277 277 278 279 281 282 283 282 280 280 281 283 285 287 289 290 294 297 295 294 296 296 300 301 302 302 298 302 295 289 291 296 271 261 250 230 235 245 246 254 259 266
276 277 277 278 280 282 283 284 281 278 278 278 279 282 282 285 286 295 296 293 293 294 295 298 296 299 302 305 310 305 289 296 302 269 284 259 243 239 243 249 258 265 269
274 276 277 278 280 281 284 284 279 278 279 279 281 283 286 283 289 296 296 294 294 295 294 291 297 301 301 303 296 306 300 301 287 301 296 287 271 260 256 259 265 271 273
274 277 278 279 281 283 285 281 277 278 280 282 287 288 287 290 293 294 299 303 303 300 293 291 297 301 306 300 298 300 298 301 289 288 285 275 268 269 268 269 264 264 269
277 279 281 282 284 285 281 281 281 280 283 289 291 291 292 294 294 298 300 303 310 313 309 304 301 301 305 309 308 308 306 300 296 292 278 272 270 272 271 273 273 272 271
277 279 283 286 286 283 282 283 284 288 293 300 305 308 310 317 323 319 321 313 306 312 310 310 307 308 309 308 306 303 300 297 294 291 288 283 277 274 272 270 269 269 271
272 276 281 282 280 278 282 286 287 311 335 325 315 315 318 317 316 318 318 316 313 314 314 314 313 311 309 306 305 303 301 298 293 290 284 280 279 277 277 278 278 279 277
272 274 268 259 254 247 232 272 300 305 304 307 309 311 312 315 316 317 315 314 313 314 313 313 312 310 306 304 302 302 300 296 293 289 287 287 284 283 284 282 279 276 273
253 242 227 208 205 233 266 281 291 296 298 303 308 311 313 313 313 313 311 310 310 311 311 312 311 309 307 306 305 302 299 298 293 287 286 276 272 274 271 270 268 264 262
198 188 191 206 229 259 277 288 294 299 304 309 311 313 314 316 316 314 313 313 312 311 311 310 309 308 307 306 306 304 303 299 296 294 290 282 273 266 261 260 259 259 259
195 199 210 233 254 272 284 292 299 304 307 309 311 313 315 316 315 313 312 312 312 313 313 312 312 311 310 309 307 304 301 300 298 294 287 280 275 269 263 259 257 257 258
Height
3193 3193 3193 3194 3194 3194 3193 3193 3193 3193 3192 3192 3191 3190 3190 3189 3188 3187 3186 3185 3184 3183 3182 3181 3180 3179 3178 3176 3175 3174 3174 3173 3173 3172 3172 3171 3171 3170 3170 3169 3169 3169 3168
3189 3190 3190 3190 3190 3190 3190 3189 3189 3189 3189 3188 3187 3186 3185 3184 3183 3182 3182 3180 3180 3179 3178 3177 3176 3176 3175 3173 3173 3172 3170 3170 3169 3169 3169 3169 3169 3168 3168 3167 3167 3166 3166
3185 3186 3186 3186 3186 3186 3185 3185 3185 3184 3184 3183 3182 3181 3180 3178 3178 3177 3176 3176 3175 3175 3174 3173 3172 3171 3170 3169 3168 3167 3166 3165 3164 3164 3164 3164 3164 3164 3164 3164 3164 3164 3163
3182 3182 3182 3182 3181 3181 3181 3181 3180 3179 3178 3177 3176 3175 3174 3173 3172 3172 3171 3171 3170 3170 3169 3167 3166 3166 3165 3165 3164 3163 3162 3161 3160 3158 3158 3157 3158 3159 3159 3159 3159 3159 3160
3177 3177 3177 3177 3177 3176 3176 3175 3175 3173 3173 3172 3170 3169 3168 3167 3166 3165 3166 3165 3164 3164 3163 3162 3160 3159 3159 3158 3157 3156 3155 3155 3154 3153 3153 3152 3152 3152 3153 3154 3154 3154 3155
3171 3171 3172 3172 3171 3170 3170 3169 3168 3167 3166 3165 3163 3162 3161 3160 3159 3158 3158 3158 3157 3157 3156 3155 3154 3153 3152 3151 3150 3148 3148 3147 3148 3147 3147 3147 3147 3147 3147 3147 3148 3149 3149
3165 3164 3165 3165 3165 3164 3163 3163 3161 3160 3158 3157 3153 3153 3153 3152 3151 3150 3150 3150 3150 3149 3148 3148 3147 3146 3145 3143 3142 3141 3141 3140 3139 3140 3139 3139 3139 3140 3140 3141 3141 3142 3143
3157 3157 3157 3157 3156 3155 3155 3155 3153 3151 3149 3150 3146 3143 3140 3143 3143 3142 3142 3141 3141 3140 3140 3139 3138 3137 3136 3135 3134 3133 3132 3132 3130 3130 3130 3130 3130 3131 3131 3132 3133 3134 3135
3150 3149 3149 3149 3148 3147 3147 3146 3145 3142 3140 3140 3140 3138 3132 3130 3130 3131 3131 3132 3132 3131 3130 3129 3128 3127 3126 3126 3124 3123 3123 3122 3121 3120 3118 3119 3118 3119 3121 3122 3124 3125 3126
3141 3141 3141 3140 3140 3139 3138 3137 3136 3135 3133 3132 3131 3131 3128 3125 3121 3118 3118 3119 3121 3121 3121 3119 3117 3117 3117 3116 3115 3114 3113 3112 3110 3110 3110 3105 3105 3103 3109 3112 3114 3116 3117
3133 3133 3133 3132 3132 3131 3130 3130 3129 3128 3126 3124 3123 3122 3121 3119 3118 3115 3110 3111 3111 3111 3110 3109 3108 3108 3106 3106 3105 3104 3101 3101 3100 3097 3095 3099 3098 3096 3096 3098 3100 3103 3104
3126 3126 3125 3125 3125 3124 3123 3122 3121 3119 3119 3117 3116 3115 3114 3112 3111 3109 3105 3103 3100 3100 3101 3100 3100 3098 3097 3096 3094 3092 3090 3088 3086 3086 3086 3083 3086 3085 3089 3087 3089 3091 3094
3119 3118 3117 3117 3116 3115 3115 3114 3113 3111 3110 3109 3108 3108 3107 3105 3103 3101 3098 3094 3091 3089 3089 3091 3089 3089 3087 3086 3085 3082 3081 3078 3074 3074 3075 3075 3074 3078 3079 3080 3081 3082 3083
3111 3111 3110 3109 3108 3107 3106 3104 3103 3102 3101 3100 3100 3099 3098 3097 3096 3094 3090 3087 3083 3081 3080 3081 3081 3080 3078 3077 3075 3073 3070 3066 3063 3061 3064 3064 3063 3066 3068 3069 3071 3072 3074
3103 3103 3102 3101 3099 3098 3097 3096 3095 3093 3092 3092 3091 3091 3090 3089 3088 3086 3083 3081 3077 3073 3071 3072 3071 3071 3069 3067 3065 3063 3061 3057 3055 3050 3053 3054 3053 3056 3059 3060 3061 3064 3065
3095 3095 3093 3092 3092 3091 3090 3089 3088 3087 3086 3086 3085 3084 3083 3083 3081 3078 3075 3073 3070 3067 3065 3064 3064 3064 3062 3060 3057 3055 3054 3052 3048 3043 3041 3043 3045 3047 3049 3052 3055 3057 3058
3088 3087 3086 3085 3085 3084 3083 3082 3082 3081 3081 3080 3079 3079 3078 3076 3074 3071 3068 3066 3063 3061 3059 3059 3058 3058 3056 3054 3052 3050 3049 3047 3043 3040 3040 3039 3040 3042 3044 3047 3049 3049 3049
3080 3080 3079 3079 3078 3078 3077 3076 3076 3076 3075 3075 3074 3073 3071 3069 3068 3065 3062 3059 3057 3055 3054 3054 3054 3052 3051 3048 3046 3045 3044 3042 3041 3038 3039 3040 3039 3039 3040 3042 3042 3043 3044
3073 3073 3073 3073 3072 3072 3071 3071 3071 3070 3070 3069 3068 3067 3065 3064 3062 3059 3057 3054 3052 3050 3049 3048 3047 3046 3045 3042 3040 3039 3037 3037 3036 3035 3035 3036 3035 3033 3034 3035 3034 3035 3035
3068 3067 3067 3066 3066 3066 3066 3066 3065 3065 3065 3064 3062 3061 3060 3059 3056 3055 3053 3051 3049 3047 3045 3043 3042 3040 3039 3037 3035 3033 3031 3030 3028 3028 3028 3028 3027 3027 3027 3027 3027 3026 3027
3061 3062 3061 3062 3060 3061 3062 3061 3061 3061 3060 3059 3058 3057 3057 3055 3053 3052 3050 3048 3046 3044 3043 3040 3039 3036 3033 3031 3029 3028 3025 3023 3022 3020 3019 3019 3018 3018 3017 3018 3019 3019 3018
3056 3056 3056 3057 3057 3057 3058 3058 3058 3058 3057 3057 3057 3056 3054 3053 3051 3049 3047 3045 3043 3041 3038 3036 3033 3031 3029 3026 3023 3020 3018 3016 3014 3013 3012 3011 3010 3008 3008 3009 3008 3006 3006
3052 3052 3054 3055 3055 3056 3056 3057 3057 3056 3056 3056 3055 3053 3051 3049 3046 3044 3042 3041 3038 3036 3033 3030 3027 3025 3022 3019 3017 3014 3011 3008 3006 3004 3003 3002 2999 2999 2999 2999 2998 2997 2997
3049 3050 3052 3053 3054 3055 3055 3055 3055 3054 3054 3053 3051 3049 3047 3045 3043 3039 3037 3035 3032 3030 3027 3024 3021 3018 3015 3011 3008 3006 3003 3001 2999 2997 2997 2997 2994 2994 2993 2993 2992 2992 2992
3047 3049 3050 3051 3052 3053 3053 3053 3053 3052 3051 3049 3047 3045 3043 3040 3038 3035 3032 3029 3026 3023 3021 3018 3015 3011 3007 3004 3001 2998 2996 2994 2993 2991 2990 2989 2988 2988 2988 2987 2987 2986 2986
3046 3048 3049 3050 3051 3052 3051 3051 3050 3049 3047 3045 3043 3040 3037 3035 3032 3029 3026 3023 3020 3017 3014 3011 3008 3004 3000 2997 2995 2992 2990 2988 2987 2986 2984 2984 2981 2982 2982 2981 2981 2981 2980